CAPE
0 0 0 0 0 0 0 0 48 0 0 0 0 0 2 71 240 791 607 4 23 769 763 654 679 922 1124 1035 937 601 448 64 21 51 16 4 25 94 184 324 469 274 31 0 0 0 0 0 0
0 0 0 0 0 0 10 29 18 10 5 0 0 0 0 83 326 562 183 1 94 891 961 727 618 752 974 1028 1121 938 662 260 23 42 0 0 10 37 145 241 213 34 0 0 0 0 0 0 0
0 0 0 0 0 0 5 21 15 0 0 0 0 0 0 42 49 622 344 72 218 631 762 1051 511 723 869 1108 1283 1174 815 573 120 90 0 16 9 25 81 60 48 0 0 0 0 0 0 0 0
0 0 0 0 0 0 2 0 0 0 0 0 0 0 0 0 3 235 159 201 448 383 438 1147 459 596 712 935 1175 1423 1046 760 300 146 63 82 48 43 28 17 0 0 0 0 0 0 0 0 0
0 0 0 0 0 0 0 0 0 0 0 0 0 0 0 0 26 297 271 333 594 346 278 1245 525 605 690 883 1189 1390 1196 887 489 264 235 280 141 64 34 0 0 0 0 0 0 0 0 0 0
0 0 0 0 0 0 0 0 0 0 0 0 0 0 1 0 31 184 381 440 607 434 424 1306 450 500 615 895 1187 1358 1085 873 609 351 441 422 255 132 82 5 0 0 0 0 0 0 0 0 0
0 0 0 0 0 0 0 0 0 0 0 0 0 0 0 0 3 315 457 508 450 536 604 1110 402 497 510 710 958 1101 993 871 717 584 601 428 164 94 40 3 0 0 0 0 0 0 0 0 0
0 0 0 0 0 0 0 0 0 0 0 0 0 0 0 0 0 178 332 354 322 496 708 1050 477 248 236 501 703 806 899 879 828 706 590 383 204 123 18 0 0 0 0 0 0 0 0 0 0
0 0 0 0 0 0 0 0 0 0 0 0 0 0 0 0 0 0 182 314 250 330 577 1189 673 422 215 164 401 449 631 762 763 711 563 240 95 117 72 0 23 0 0 0 0 0 0 0 0
0 0 0 0 0 0 0 0 0 0 0 0 0 0 0 0 0 0 109 247 293 279 306 983 1066 815 539 276 523 182 199 296 404 392 471 191 62 26 1 11 6 31 0 0 0 0 0 0 6
0 0 0 0 0 0 0 0 0 0 0 0 0 0 0 0 0 0 31 166 227 265 263 494 1357 1312 883 484 633 401 179 132 141 205 434 360 78 29 14 212 147 63 2 6 10 100 88 208 566
0 0 0 0 0 0 0 0 0 0 0 0 0 0 0 0 0 0 0 71 226 248 373 502 1266 1680 1493 838 604 614 185 173 153 260 697 692 353 218 299 118 218 161 120 110 135 85 161 766 1129
0 0 0 0 0 0 0 0 0 0 0 0 0 0 0 0 0 0 0 0 52 321 286 616 1082 1982 2180 1913 1007 867 474 307 246 339 639 614 428 423 513 326 157 267 241 235 226 127 445 963 1279
0 0 0 0 0 0 0 0 0 0 0 0 0 0 0 0 0 0 0 0 0 3 657 783 1126 2195 2452 2386 1979 1352 1214 535 505 438 519 838 666 747 534 542 499 358 296 227 214 211 523 1049 924
0 0 0 0 0 0 0 0 0 0 0 0 0 0 0 0 0 0 0 0 0 0 385 1057 1392 1987 2796 2754 2583 2207 1430 1159 817 814 977 1386 1293 1189 876 728 699 476 470 459 350 251 520 420 408
0 0 0 0 0 0 0 0 0 0 0 0 0 0 0 0 0 0 0 0 0 0 0 327 894 1384 2648 2938 2887 2434 1999 1766 1318 1189 664 1554 1780 1545 1532 1177 973 917 883 867 689 494 290 294 377
0 0 0 0 0 0 0 0 0 0 0 0 0 0 0 0 0 0 0 0 0 0 0 232 966 1356 1984 3179 3153 2977 2611 2297 2005 1628 1354 2061 2248 1934 2018 1613 1298 1343 1430 1357 1103 644 385 381 693
0 0 0 0 0 0 0 0 0 0 0 0 0 0 0 0 0 0 0 0 0 0 0 0 391 2046 2420 2933 3378 2969 2720 2585 2420 2133 2102 2379 2214 1672 2288 1790 1829 2163 1760 1483 1151 849 621 793 1311
0 0 0 0 0 0 0 0 0 0 0 0 0 0 0 0 0 0 0 0 0 0 0 0 13 257 2125 2551 2449 2572 2485 2417 2357 2459 2510 2624 2482 2232 2409 1845 2085 2460 2196 1611 1351 1095 1135 1292 1900
0 0 0 0 0 0 0 0 0 0 0 0 0 0 0 0 0 0 0 0 0 0 0 0 0 50 426 1107 2242 2340 2336 2055 2141 2323 2556 2579 2590 2780 2835 2505 2091 2293 2053 1810 1600 1557 1335 1764 2116
0 0 0 0 0 0 0 0 0 0 0 0 0 0 0 0 0 0 0 0 0 0 0 0 0 0 242 445 1078 2503 2467 2408 1907 1786 2199 2776 2866 2710 2265 2613 2423 2172 2127 1646 1911 2030 2274 1878 1963
0 0 0 0 0 0 0 0 0 0 0 0 0 0 0 0 0 0 0 0 0 0 0 0 0 0 5 356 305 539 1379 1643 1410 1400 1565 2441 3272 3156 2701 2465 2642 2140 2076 1779 2391 2730 2702 2082 1439
0 0 0 0 0 0 0 0 0 0 0 0 0 0 0 0 0 0 0 0 0 0 0 0 0 0 0 83 429 351 578 523 992 1439 1595 2007 2832 3427 3142 2866 2366 2570 3022 2715 2932 2995 2826 2134 1784
0 0 0 0 0 0 0 0 0 0 0 0 0 0 0 0 0 0 0 0 0 0 0 0 0 0 0 29 113 551 889 1198 1071 983 1371 1718 2462 2923 3105 2539 2667 3131 3385 3226 2959 2815 2446 2571 1890
0 0 0 0 0 0 0 0 0 3 0 0 0 0 0 0 0 0 0 0 0 0 0 0 0 0 0 1 73 130 373 882 1664 1608 1172 924 1750 2148 2842 2704 2328 2999 3363 3251 3004 2653 2538 2519 2492
0 0 0 0 0 3 0 0 12 1 0 0 0 0 0 0 0 0 0 0 0 0 0 0 0 0 0 1 56 141 203 235 249 668 1053 1496 984 1111 1267 1995 2473 2372 2556 3191 2990 2576 2868 2866 2787
0 0 0 0 1 10 1 1 3 0 2 0 0 1 0 0 0 0 0 0 1 1 0 0 0 0 0 0 29 132 350 466 404 533 867 1380 1824 1493 2302 1685 1475 790 926 2345 2679 2878 2707 2537 2427
0 0 0 0 12 8 11 14 24 0 1 0 0 3 6 0 0 0 0 0 2 2 1 1 0 0 0 0 0 34 112 390 640 950 1167 1396 2102 2111 2164 985 505 72 1109 1558 2037 2309 2344 2129 2004
1 0 3 5 12 19 18 11 0 1 0 9 8 0 1 0 11 3 0 0 0 0 0 0 3 2 0 3 0 0 64 189 355 934 1160 1660 2179 1862 1751 1524 1102 436 1438 1096 1142 1408 1508 1325 1713
7 9 11 13 6 18 19 8 13 3 2 12 8 0 0 5 4 4 0 0 0 0 14 20 21 20 25 10 0 0 56 190 192 350 715 1182 1493 1577 1120 488 388 34 12 2 18 25 49 402 773
CIN
-0 -0 -0 -0 -0 -0 -0 -0 -5 -0 -0 -0 -0 -0 -5 -22 -24 -17 -147 -11 -75 -261 -386 -443 -432 -360 -289 -248 -221 -244 -245 -350 -370 -321 -381 -427 -319 -212 -165 -118 -98 -123 -185 -0 -0 -0 -0 -0 -0
-0 -0 -0 -0 -0 -0 -3 -6 -15 -7 -3 -0 -0 -0 -0 -40 -40 -113 -178 -7 -258 -275 -360 -387 -456 -383 -306 -259 -209 -185 -204 -259 -330 -284 -0 -0 -209 -241 -174 -148 -145 -145 -0 -0 -0 -0 -0 -0 -0
-0 -0 -0 -0 -0 -0 -2 -13 -14 -0 -0 -0 -0 -0 -0 -8 -98 -13 -170 -218 -216 -264 -341 -340 -468 -378 -321 -243 -176 -160 -170 -190 -273 -248 -0 -271 -221 -198 -198 -216 -228 -0 -0 -0 -0 -0 -0 -0 -0
-0 -0 -0 -0 -0 -0 -3 -0 -0 -0 -0 -0 -0 -0 -0 -0 -13 -67 -164 -173 -171 -209 -308 -348 -463 -408 -333 -265 -211 -133 -147 -151 -231 -246 -252 -209 -212 -207 -204 -220 -0 -0 -0 -0 -0 -0 -0 -0 -0
-0 -0 -0 -0 -0 -0 -0 -1 -0 -0 -0 -0 -0 -0 -0 -0 -101 -84 -127 -124 -121 -167 -228 -295 -426 -373 -320 -254 -197 -149 -133 -144 -181 -209 -196 -167 -182 -202 -207 -0 -0 -0 -0 -0 -0 -0 -0 -0 -0
-0 -0 -0 -0 -0 -0 -0 -0 -0 -0 -0 -0 -0 -0 -5 -0 -47 -83 -67 -88 -82 -129 -187 -226 -430 -377 -319 -227 -173 -139 -154 -142 -154 -176 -142 -136 -159 -181 -191 -97 -0 -0 -0 -0 -0 -0 -0 -0 -0
-0 -0 -0 -0 -0 -0 -0 -0 -0 -0 -0 -0 -0 -0 -0 -0 -10 -44 -46 -64 -56 -85 -127 -204 -363 -359 -337 -272 -188 -150 -162 -148 -137 -124 -116 -141 -201 -219 -241 -43 -0 -0 -0 -0 -0 -0 -0 -0 -0
-0 -0 -0 -0 -0 -0 -0 -0 -0 -0 -0 -0 -0 -0 -0 -0 -0 -42 -28 -39 -39 -60 -74 -157 -273 -339 -348 -283 -237 -192 -139 -141 -125 -119 -126 -151 -178 -223 -325 -0 -0 -0 -0 -0 -0 -0 -0 -0 -0
-0 -0 -0 -0 -0 -0 -0 -0 -0 -0 -0 -0 -0 -0 -0 -0 -0 -0 -13 -8 -14 -37 -49 -76 -173 -234 -277 -297 -267 -281 -215 -162 -161 -140 -142 -216 -228 -189 -241 -0 -304 -0 -0 -0 -0 -0 -0 -0 -0
-0 -0 -0 -0 -0 -0 -0 -0 -0 -0 -0 -0 -0 -0 -0 -0 -0 -10 -15 -3 -2 -8 -24 -30 -79 -127 -169 -193 -186 -330 -319 -266 -235 -212 -186 -216 -224 -225 -127 -285 -370 -292 -0 -0 -0 -0 -0 -0 -101
-0 -0 -0 -0 -0 -0 -0 -0 -0 -0 -0 -0 -0 -0 -0 -0 -0 -0 -5 -5 -5 -2 -13 -27 -58 -94 -119 -123 -152 -236 -315 -334 -327 -262 -148 -172 -200 -207 -199 -150 -214 -259 -333 -196 -244 -181 -234 -113 -29
-0 -0 -0 -0 -0 -0 -0 -0 -0 -0 -0 -0 -0 -0 -0 -0 -0 -0 -0 -2 -5 -6 -27 -28 -41 -74 -100 -75 -121 -159 -263 -291 -284 -225 -119 -107 -154 -149 -113 -136 -119 -180 -168 -153 -124 -101 -109 -54 -27
-0 -0 -0 -0 -0 -0 -0 -0 -0 -0 -0 -0 -0 -0 -0 -0 -0 -0 -0 -0 -5 -23 -17 -30 -25 -70 -78 -72 -77 -112 -162 -191 -181 -187 -127 -120 -135 -132 -118 -103 -108 -110 -101 -111 -104 -131 -82 -43 -35
-0 -0 -0 -0 -0 -0 -0 -0 -0 -0 -0 -0 -0 -0 -0 -0 -0 -0 -0 -0 -0 -14 -6 -16 -27 -36 -63 -79 -64 -106 -106 -128 -144 -131 -113 -119 -109 -90 -131 -118 -108 -87 -90 -91 -100 -95 -79 -41 -30
-0 -0 -0 -0 -0 -0 -0 -0 -0 -0 -0 -0 -0 -0 -0 -0 -0 -0 -0 -0 -0 -0 -47 -41 -41 -36 -47 -59 -53 -42 -81 -83 -68 -78 -87 -68 -72 -63 -105 -85 -116 -118 -121 -100 -86 -109 -95 -109 -82
-0 -0 -0 -0 -0 -0 -0 -0 -0 -0 -0 -0 -0 -0 -0 -0 -0 -0 -0 -0 -0 -0 -0 -54 -16 -13 -39 -39 -28 -50 -47 -38 -47 -95 -148 -124 -91 -81 -116 -64 -68 -61 -77 -83 -78 -86 -111 -98 -79
-0 -0 -0 -0 -0 -0 -0 -0 -0 -0 -0 -0 -0 -0 -0 -0 -0 -0 -0 -0 -0 -0 -0 -93 -29 -15 -15 -16 -11 -17 -22 -8 -7 -19 -84 -56 -30 -63 -63 -104 -39 -82 -68 -52 -81 -91 -107 -102 -59
-0 -0 -0 -0 -0 -0 -0 -0 -0 -0 -0 -0 -0 -0 -0 -0 -0 -0 -0 -0 -0 -0 -0 -0 -111 -1 -2 -1 -1 -1 -7 -10 -3 -2 -2 -5 -11 -55 -29 -41 -14 -3 -17 -29 -61 -112 -153 -138 -71
-0 -0 -0 -0 -0 -0 -0 -0 -0 -0 -0 -0 -0 -0 -0 -0 -0 -0 -0 -0 -0 -0 -0 -0 -199 -159 -16 -6 -2 -3 -5 -10 -11 -1 -1 -2 -27 -44 -30 -38 -1 -1 -29 -44 -45 -75 -53 -52 -1
-0 -0 -0 -0 -0 -0 -0 -0 -0 -0 -0 -0 -0 -0 -0 -0 -0 -0 -0 -0 -0 -0 -0 -0 -0 -172 -147 -51 -8 -2 -1 -1 -2 -2 -1 -1 -7 -17 -8 -32 -23 -34 -58 -55 -30 -53 -38 -3 -4
-0 -0 -0 -0 -0 -0 -0 -0 -0 -0 -0 -0 -0 -0 -0 -0 -0 -0 -0 -0 -0 -0 -0 -0 -0 -0 -136 -135 -48 -1 -3 -4 -2 -3 -1 -1 -5 -13 -40 -17 -46 -30 -60 -47 -57 -53 -10 -1 -1
-0 -0 -0 -0 -0 -0 -0 -0 -0 -0 -0 -0 -0 -0 -0 -0 -0 -0 -0 -0 -0 -0 -0 -0 -0 -0 -28 -128 -110 -71 -6 -3 -8 -2 -2 -3 -5 -1 -10 -37 -36 -53 -31 -38 -23 -11 -4 -8 -1
-0 -0 -0 -0 -0 -0 -0 -0 -0 -0 -0 -0 -0 -0 -0 -0 -0 -0 -0 -0 -0 -0 -0 -0 -0 -0 -0 -122 -117 -89 -55 -39 -8 -2 -3 -4 -3 -10 -2 -3 -48 -37 -10 -23 -2 -1 -9 -12 -13
-0 -0 -0 -0 -0 -0 -0 -0 -0 -0 -0 -0 -0 -0 -0 -0 -0 -0 -0 -0 -0 -0 -0 -0 -0 -0 -0 -117 -106 -97 -80 -37 -11 -2 -1 -1 -1 -2 -17 -5 -10 -2 -5 -5 -7 -7 -9 -12 -17
-0 -0 -0 -0 -0 -0 -0 -0 -0 -8 -0 -0 -0 -0 -0 -0 -0 -0 -0 -0 -0 -0 -0 -0 -0 -0 -0 -2 -86 -98 -90 -70 -27 -27 -29 -30 -0 -0 -9 -33 -4 -1 -9 -13 -11 -13 -5 -9 -27
-0 -0 -0 -4 -7 -11 -1 -1 -7 -7 -0 -0 -0 -0 -0 -0 -0 -0 -0 -0 -0 -0 -0 -0 -0 -0 -0 -4 -56 -71 -87 -81 -78 -49 -43 -14 -23 -15 -72 -4 -8 -15 -15 -2 -7 -6 -3 -1 -1
-0 -0 -0 -4 -1 -5 -2 -1 -8 -2 -12 -0 -0 -2 -0 -0 -0 -0 -0 -0 -2 -1 -0 -0 -0 -0 -0 -0 -42 -47 -39 -52 -81 -77 -59 -18 -17 -19 -1 -31 -16 -12 -11 -5 -5 -2 -4 -3 -15
-2 -0 -0 -3 -1 -4 -6 -7 -11 -24 -9 -0 -0 -3 -3 -0 -0 -0 -0 -0 -2 -2 -3 -2 -1 -0 -0 -0 -0 -24 -21 -21 -20 -22 -39 -47 -5 -7 -11 -83 -86 -21 -4 -2 -5 -3 -7 -16 -15
-3 -0 -4 -5 -5 -1 -2 -4 -8 -2 -0 -20 -11 -0 -17 -11 -6 -6 -0 -0 -0 -0 -0 -0 -4 -3 -0 -3 -0 -0 -7 -15 -28 -10 -15 -6 -1 -20 -20 -18 -54 -1 -7 -19 -57 -16 -15 -2 -2
-6 -3 -4 -2 -1 -2 -1 -2 -9 -16 -40 -11 -1 -1 -0 -7 -6 -6 -0 -0 -0 -0 -6 -2 -3 -4 -2 -2 -0 -0 -35 -4 -7 -25 -12 -1 -1 -4 -12 -122 -51 -143 -180 -100 -260 -156 -99 -72 -22
Wind_Speed
28 26 26 26 20 21 34 30 19 13 14 13 16 19 21 20 18 16 9 10 11 11 15 16 15 15 17 17 17 18 19 21 21 21 21 21 22 22 23 23 22 20 20 20 21 21 21 21 21
27 27 26 24 23 26 20 25 17 17 18 14 15 14 16 16 15 10 8 8 8 10 11 12 12 13 14 14 14 15 18 19 20 20 20 20 20 20 20 20 19 18 17 18 18 18 18 19 19
28 26 25 26 26 27 24 25 18 16 18 16 15 18 14 14 13 9 9 6 7 7 9 9 11 10 11 11 11 12 13 16 17 17 18 18 17 17 18 18 17 16 16 16 16 16 16 17 17
24 24 23 28 28 25 18 19 18 19 15 17 19 14 14 16 14 13 5 5 5 5 6 8 9 9 9 9 9 10 11 12 14 14 14 15 15 14 15 15 15 14 14 14 14 15 15 16 16
24 26 31 30 30 29 24 18 20 20 19 18 18 18 14 13 13 7 5 4 4 4 5 5 6 6 6 6 7 9 10 11 11 11 11 11 12 12 11 11 11 11 12 12 13 14 14 15 15
24 23 32 33 31 29 22 23 25 24 20 19 19 17 12 11 10 7 5 5 4 3 4 4 5 4 4 4 5 7 8 9 9 9 8 6 6 7 7 8 8 9 10 11 11 12 13 13 14
27 26 37 37 34 34 27 25 25 26 25 22 19 20 12 11 13 9 6 6 4 3 3 3 3 2 2 2 4 5 6 7 6 6 4 3 3 4 5 6 7 8 8 10 11 11 12 12 12
26 32 35 34 35 37 25 26 26 27 25 20 20 21 17 14 17 8 6 5 3 3 3 3 2 2 2 1 1 2 3 4 4 3 2 1 1 3 3 4 5 8 9 9 10 11 12 12 11
22 27 29 28 29 29 27 24 26 22 28 23 22 23 22 20 15 12 9 6 4 4 3 2 0 1 2 2 3 3 3 3 4 4 4 4 3 3 1 3 4 6 9 11 12 13 13 13 10
21 24 28 28 28 27 31 23 25 22 26 27 25 23 22 20 18 13 9 9 8 7 6 4 2 2 3 4 5 6 6 8 9 7 6 7 7 6 6 5 6 8 11 12 13 14 15 15 14
23 32 26 26 26 27 27 26 24 29 34 29 30 24 20 21 19 17 16 10 11 10 9 7 5 3 4 4 5 7 8 9 9 9 10 9 8 9 9 11 12 12 12 13 12 14 14 14 19
29 26 30 27 23 25 29 30 31 29 30 25 23 25 27 24 23 20 19 16 10 7 9 10 8 7 6 7 8 6 5 6 7 10 11 11 13 13 12 16 14 15 13 15 14 17 18 18 17
24 29 24 27 26 25 26 27 28 28 23 23 23 21 24 24 23 22 22 26 27 13 10 8 11 10 10 12 10 10 11 11 11 10 12 13 13 16 16 18 18 17 20 17 19 18 18 18 18
17 23 26 22 23 23 25 27 24 25 24 23 21 21 20 18 19 19 19 24 27 27 23 11 13 13 14 13 16 12 12 12 11 11 13 16 19 20 17 20 20 19 18 21 20 22 20 19 20
27 26 26 26 25 25 25 31 29 25 23 18 20 20 21 19 19 21 19 20 21 26 23 19 17 15 14 14 16 17 14 13 12 13 13 15 21 19 21 21 22 21 20 22 22 22 22 23 23
25 26 31 25 18 19 21 32 24 16 15 21 23 23 21 22 21 21 20 22 23 23 22 18 20 16 15 16 16 16 15 13 14 13 18 14 15 20 19 24 23 22 21 21 21 21 20 20 22
20 27 23 22 13 19 17 26 19 15 19 23 22 20 20 20 19 21 22 24 25 25 24 25 20 20 17 16 16 16 19 18 16 17 16 14 15 17 22 19 25 22 20 24 21 21 21 21 22
21 22 24 25 14 18 24 24 25 19 18 20 21 22 22 21 21 21 21 22 25 25 24 25 26 22 21 19 19 22 20 20 21 21 19 17 19 20 20 21 24 23 23 21 22 24 22 20 19
32 30 30 25 20 26 30 32 31 26 25 25 24 22 23 23 22 22 22 21 25 26 25 26 26 27 25 23 24 24 26 24 23 22 23 22 21 22 22 22 23 23 24 26 25 26 24 23 19
32 35 36 34 30 30 35 38 34 30 28 25 27 25 21 22 23 23 23 23 24 24 27 27 27 26 27 26 27 28 26 27 26 24 24 25 25 25 24 24 24 23 24 25 26 23 24 23 21
32 36 36 37 32 25 31 42 36 33 32 30 27 29 29 28 29 28 27 25 24 25 29 29 29 29 27 29 30 28 30 32 28 26 26 24 24 26 26 25 25 25 24 24 24 23 22 24 21
35 28 32 34 34 39 29 46 35 30 30 27 24 22 26 27 25 25 22 24 28 30 30 30 29 29 29 28 30 32 31 30 29 30 28 26 25 26 27 28 26 27 23 24 21 19 19 20 23
34 32 31 33 34 38 34 37 35 27 25 24 23 28 26 21 19 21 25 27 30 31 31 30 30 30 30 30 32 34 32 36 34 33 33 30 27 27 28 27 28 27 25 23 20 19 19 18 23
29 26 28 29 32 42 34 35 39 34 32 27 19 16 16 16 20 24 27 29 31 31 32 31 30 31 31 32 33 34 36 37 36 34 34 33 28 28 29 31 30 27 26 25 23 23 22 23 24
24 28 38 40 38 44 32 33 33 26 27 27 27 22 14 17 22 24 26 29 29 29 28 29 30 32 32 33 33 34 36 37 38 39 39 39 36 33 32 30 32 31 29 27 24 23 23 21 24
33 30 34 47 46 47 41 42 35 31 26 24 21 20 19 19 22 24 26 28 30 29 31 31 32 32 33 34 35 35 36 37 38 39 39 41 41 45 35 33 37 33 31 30 21 23 22 22 24
35 37 34 41 44 47 45 47 42 36 28 18 19 19 20 22 23 26 28 29 30 31 31 32 33 34 34 35 35 36 37 38 41 42 42 41 43 49 39 29 30 29 50 26 24 22 21 22 23
31 30 33 30 37 43 39 36 28 29 25 20 17 18 20 24 28 31 31 30 30 31 32 31 32 36 36 35 36 36 36 37 39 40 41 42 43 45 48 41 32 16 38 30 20 19 21 22 24
37 33 36 36 38 42 47 40 29 28 24 25 22 21 25 27 30 33 32 35 36 35 34 34 34 35 36 35 36 36 36 35 38 38 39 39 40 41 38 31 27 23 19 20 22 22 23 24 24
32 38 31 32 35 34 40 41 30 23 23 21 26 27 29 32 35 35 36 38 36 34 33 33 32 33 33 33 35 34 35 36 33 33 35 34 36 35 35 34 31 35 28 26 28 28 28 30 34
Wind_Direction
272 277 272 266 274 273 250 260 288 309 311 309 312 290 286 301 303 287 38 33 71 76 101 106 96 94 105 106 106 108 111 113 111 106 104 104 105 107 108 107 99 86 85 82 79 79 77 78 85
273 276 271 271 272 265 275 269 288 292 304 322 315 314 308 306 331 0 31 31 67 77 96 105 102 98 99 104 106 109 116 117 115 113 109 108 106 103 103 102 92 80 74 71 70 69 68 69 80
269 271 280 268 269 268 282 276 292 301 305 303 313 304 321 316 319 344 12 41 64 75 96 103 109 98 97 96 98 107 113 116 116 114 111 109 105 99 100 96 91 79 74 67 61 56 57 64 77
278 273 278 269 266 270 292 272 292 292 303 302 303 317 315 318 317 325 15 36 47 73 92 103 115 109 102 96 97 102 115 116 117 114 109 108 104 98 96 93 87 79 72 63 51 48 51 57 70
275 271 267 268 267 272 275 293 290 289 296 301 302 303 315 326 329 344 354 13 36 66 81 94 121 109 103 97 97 106 118 122 119 114 109 103 103 98 89 81 73 64 65 58 52 50 48 51 60
272 274 266 265 268 272 281 283 280 284 292 294 293 299 325 346 342 342 354 352 10 40 63 69 128 119 112 96 97 107 124 130 126 122 114 96 76 77 68 64 57 48 44 42 36 37 41 42 49
265 265 263 265 270 270 273 277 279 278 280 288 292 291 312 325 323 341 354 352 12 17 17 36 135 143 129 110 112 118 130 139 140 136 119 90 61 41 24 28 24 29 20 5 359 9 18 27 38
266 266 269 270 271 270 278 277 277 279 277 297 294 283 294 313 313 319 329 340 340 351 9 29 121 153 176 234 188 151 159 168 173 187 174 110 14 357 6 356 358 346 349 352 349 352 360 11 23
271 270 271 274 275 277 279 281 279 283 281 289 287 284 294 311 314 299 294 305 309 310 314 343 115 195 233 246 253 258 245 228 209 231 251 263 281 297 321 330 334 333 325 322 324 326 335 345 12
267 269 271 277 275 275 274 281 281 287 282 279 282 287 291 299 300 290 278 282 288 289 287 295 288 262 257 269 277 260 266 266 261 248 245 256 271 282 281 282 295 307 308 312 315 316 322 328 338
269 266 278 281 279 279 276 279 286 280 277 281 281 282 286 289 294 289 282 274 279 281 280 284 280 267 266 268 280 273 273 269 262 253 258 255 263 276 282 286 285 290 294 301 307 312 321 324 313
268 275 274 284 285 281 278 280 279 280 282 285 290 286 287 288 286 283 279 280 270 248 254 275 272 275 271 278 277 282 259 260 260 251 248 260 265 271 278 280 285 283 286 293 297 303 305 308 315
269 273 280 279 283 285 286 283 284 283 289 288 285 289 286 280 283 289 288 283 281 281 274 261 273 272 274 276 277 280 273 270 268 262 258 260 259 268 272 277 280 279 280 286 290 295 300 304 306
286 280 281 285 283 284 285 285 286 286 289 286 286 289 290 280 281 286 289 285 282 280 279 290 279 273 273 271 275 270 274 271 265 262 261 259 264 267 269 272 274 281 284 282 285 288 293 299 301
275 281 280 280 281 282 287 283 281 285 286 287 288 290 288 290 286 286 289 292 293 280 281 282 279 277 273 272 273 278 273 272 266 268 261 258 260 265 266 270 272 275 280 283 288 289 290 292 295
279 279 279 284 277 283 284 282 294 282 280 286 287 286 287 288 287 287 287 289 292 293 289 277 279 274 269 274 274 271 271 271 269 254 278 248 251 258 259 268 270 274 275 278 282 284 287 293 294
280 279 281 285 289 290 283 289 291 301 291 291 290 290 290 289 288 290 289 288 289 289 288 287 280 277 272 268 270 271 274 272 271 268 267 261 251 252 264 260 268 267 269 276 274 279 285 289 291
281 279 282 283 291 293 286 285 288 295 293 291 290 291 289 290 292 294 294 293 292 291 289 286 284 281 275 273 270 276 273 273 272 270 267 263 263 265 263 268 271 275 274 277 276 278 275 280 282
282 284 284 289 293 288 287 287 288 290 290 290 291 288 287 290 295 295 294 297 295 292 293 288 282 279 277 272 271 272 272 273 272 270 270 268 270 265 262 266 267 271 272 275 276 279 279 278 281
275 272 274 279 285 287 283 280 286 288 289 290 289 289 290 290 291 292 293 293 294 294 293 292 289 284 278 273 274 275 274 273 272 272 271 270 271 268 261 260 262 264 273 272 275 274 276 276 277
275 271 273 274 282 290 288 276 286 286 284 285 286 287 288 288 289 290 292 294 298 299 296 294 291 288 284 279 277 274 274 277 274 270 273 270 268 266 262 260 260 264 263 269 268 267 268 274 278
275 285 281 281 280 278 288 269 285 291 290 291 290 289 291 288 289 289 294 300 300 299 298 294 295 290 287 283 279 276 273 269 269 271 274 270 265 265 261 260 260 260 261 265 261 262 263 267 276
279 283 285 284 284 283 286 285 290 293 293 292 292 292 291 293 298 301 301 302 302 301 299 297 294 291 290 286 282 279 277 276 274 273 275 273 270 263 261 256 252 251 252 253 256 257 258 265 273
286 289 290 289 287 279 287 286 287 291 291 294 301 297 300 300 302 303 302 303 302 304 302 299 298 295 292 289 285 280 278 278 278 275 274 272 267 263 254 248 243 241 245 251 250 257 263 267 276
287 287 284 281 280 280 291 285 290 299 300 297 296 300 309 309 307 307 309 307 308 307 308 306 301 297 294 291 288 284 281 279 277 276 275 275 273 264 256 250 250 245 234 237 247 256 260 265 274
281 283 283 282 281 282 286 283 289 298 307 300 295 295 305 311 312 310 309 309 308 308 307 306 304 302 298 294 290 288 285 282 279 277 275 274 272 271 276 275 252 244 255 236 243 250 260 271 280
284 280 289 290 285 284 285 285 292 294 287 290 290 293 301 309 311 312 311 311 310 308 308 307 305 303 301 297 294 291 289 284 281 279 278 275 271 273 276 260 264 254 259 264 250 253 261 274 282
286 290 288 288 289 284 289 293 300 308 302 309 299 300 305 309 309 311 311 311 311 310 308 307 308 304 302 301 297 294 292 290 287 283 278 274 275 273 273 277 277 244 257 247 250 260 268 275 280
285 283 282 284 282 285 286 288 309 306 310 302 299 306 308 309 311 310 310 309 308 307 307 306 306 306 303 302 300 297 295 292 291 286 282 277 274 271 272 271 267 213 241 267 268 283 282 290 284
288 281 283 281 285 285 289 292 300 316 307 304 304 307 307 308 311 310 311 310 308 307 308 309 308 306 304 304 303 302 298 296 292 291 286 282 275 271 267 263 261 259 267 267 269 269 279 287 281